Madison, MN

10:35 PM CDT on May 25, 2017 (GMT -0500)
Madison-Lac Qui Parle County

Weather History for KDXX - February, 2013

Change the Weather History Date:

Wednesday, February 27, 2013

  Actual Average (KAQP) Record (KAQP)
Temperature  
Mean Temperature 19 °F -  
Max Temperature 26 °F 26 °F 62 °F (2016)
Min Temperature 12 °F 10 °F -20 °F (2001)
Degree Days  
Heating Degree Days 46    
Moisture  
Dew Point 17 °F    
Average Humidity 84    
Maximum Humidity 93    
Minimum Humidity 74    
Precipitation  
Precipitation 0.00 in - - ()
Sea Level Pressure  
Sea Level Pressure 30.05 in    
Wind  
Wind Speed 16 mph (NNW)    
Max Wind Speed 29 mph    
Max Gust Speed 34 mph    
Visibility 8 miles    
Events      
Averages and records for this station are not official NWS values.
T = Trace of Precipitation, MM = Missing Value Source: NWS Daily Summary

Daily Weather History Graph

Daily Weather History Graph

Search for Another Location

Airport or City:

Trip Planner

Search our weather history database for the weather conditions in past years. The results will help you decide how hot, cold, wet, or windy it might be!

Date:

Astronomy

Feb. 27, 2013 Rise Set
Actual Time 7:05 AM CST 6:09 PM CST
Civil Twilight 6:36 AM CST 6:39 PM CST
Nautical Twilight 6:02 AM CST 7:13 PM CST
Astronomical Twilight 5:28 AM CST 7:47 PM CST
Moon 8:41 PM CST (2/27) 7:34 AM CST (2/27)
Length of Visible Light 12h 03m
Length of Day
11h 04m
Waning Gibbous, 96% of the Moon is Illuminated
Feb 27
Waning Gibbous
Mar 4
Last Quarter
Mar 11
New
Mar 19
First Quarter
Mar 27
Full

Hourly Weather History & Observations

Time (CST) Temp. Windchill Dew Point Humidity Pressure Visibility Wind Dir Wind Speed Gust Speed Precip Events Conditions
12:14 AM 17.6 °F 4.3 °F 15.8 °F 93% 30.00 in 2.5 mi NNW 12.7 mph - N/A   Mist
12:33 AM 17.6 °F 3.2 °F 15.8 °F 93% 30.00 in 2.5 mi NNW 15.0 mph - N/A   Mist
12:54 AM 17.6 °F 4.3 °F 14.0 °F 86% 30.00 in 3.0 mi NNW 12.7 mph - N/A   Scattered Clouds
1:14 AM 17.6 °F 4.3 °F 14.0 °F 86% 30.00 in 3.0 mi NW 12.7 mph - N/A   Scattered Clouds
1:34 AM 15.8 °F 2.7 °F 14.0 °F 93% 30.00 in 3.0 mi NW 11.5 mph - N/A   Scattered Clouds
1:53 AM 15.8 °F 3.4 °F 12.2 °F 86% 30.00 in 3.0 mi NW 10.4 mph - N/A   Scattered Clouds
2:13 AM 15.8 °F 4.2 °F 12.2 °F 86% 30.00 in 5.0 mi NW 9.2 mph - N/A   Scattered Clouds
2:34 AM 15.8 °F 5.1 °F 12.2 °F 86% 30.00 in 7.0 mi NW 8.1 mph - N/A   Clear
2:53 AM 15.8 °F 5.1 °F 12.2 °F 86% 30.00 in 4.0 mi NW 8.1 mph - N/A   Scattered Clouds
3:13 AM 14.0 °F 3.9 °F 10.4 °F 86% 30.00 in 3.0 mi NW 6.9 mph - N/A   Clear
3:34 AM 14.0 °F 2.9 °F 10.4 °F 86% 30.00 in 5.0 mi NW 8.1 mph - N/A   Clear
3:53 AM 14.0 °F 2.0 °F 10.4 °F 86% 30.00 in 7.0 mi NW 9.2 mph - N/A   Clear
4:13 AM 14.0 °F 0.5 °F 10.4 °F 86% 30.00 in 10.0 mi NNW 11.5 mph - N/A   Clear
4:34 AM 14.0 °F -0.2 °F 10.4 °F 86% 30.00 in 10.0 mi NNW 12.7 mph - N/A   Clear
4:53 AM 12.2 °F -1.8 °F 10.4 °F 92% 30.00 in 10.0 mi NNW 11.5 mph - N/A   Clear
5:13 AM 14.0 °F 0.5 °F 10.4 °F 86% 30.00 in 10.0 mi NNW 11.5 mph - N/A   Clear
5:34 AM 12.2 °F -0.2 °F 10.4 °F 92% 30.00 in 10.0 mi NW 9.2 mph - N/A   Clear
5:53 AM 14.0 °F 1.2 °F 10.4 °F 86% 30.01 in 10.0 mi NW 10.4 mph - N/A   Clear
6:14 AM 14.0 °F -0.2 °F 10.4 °F 86% 30.01 in 10.0 mi NNW 12.7 mph - N/A   Clear
6:34 AM 15.8 °F 1.4 °F 10.4 °F 79% 30.02 in 10.0 mi NNW 13.8 mph - N/A   Clear
6:53 AM 15.8 °F -0.2 °F 12.2 °F 86% 30.02 in 10.0 mi NNW 17.3 mph - N/A   Clear
7:14 AM 15.8 °F -0.6 °F 12.2 °F 86% 30.02 in 7.0 mi NNW 18.4 mph - N/A   Clear
7:34 AM 15.8 °F -2.7 °F 12.2 °F 86% 30.03 in 2.5 mi NNW 24.2 mph - N/A   Clear
7:53 AM 15.8 °F -1.1 °F 12.2 °F 86% 30.03 in 3.0 mi NNW 19.6 mph - N/A   Clear
8:14 AM 17.6 °F 0.9 °F 12.2 °F 79% 30.04 in 4.0 mi NNW 20.7 mph - N/A   Clear
8:34 AM 17.6 °F 0.5 °F 12.2 °F 79% 30.04 in 5.0 mi NNW 21.9 mph - N/A   Clear
9:14 AM 17.6 °F 0.9 °F 12.2 °F 79% 30.05 in 5.0 mi NNW 20.7 mph - N/A   Haze
9:34 AM 19.4 °F 3.6 °F 14.0 °F 80% 30.05 in 7.0 mi NW 19.6 mph - N/A   Clear
9:53 AM 19.4 °F 4.5 °F 14.0 °F 80% 30.05 in 10.0 mi NW 17.3 mph - N/A   Clear
10:14 AM 21.2 °F 6.0 °F 15.8 °F 80% 30.05 in 10.0 mi NW 19.6 mph - N/A   Clear
10:34 AM 21.2 °F 6.4 °F 15.8 °F 80% 30.05 in 10.0 mi NNW 18.4 mph 23.0 mph N/A   Clear
11:14 AM 23.0 °F 8.7 °F 17.6 °F 80% 30.05 in 10.0 mi NW 18.4 mph - N/A   Clear
11:34 AM 23.0 °F 9.2 °F 17.6 °F 80% 30.06 in 10.0 mi NNW 17.3 mph - N/A   Clear
11:53 AM 23.0 °F 9.2 °F 17.6 °F 80% 30.06 in 10.0 mi NW 17.3 mph 23.0 mph N/A   Clear
12:14 PM 24.8 °F 10.3 °F 17.6 °F 74% 30.06 in 10.0 mi NW 20.7 mph 24.2 mph N/A   Clear
12:34 PM 24.8 °F 11.5 °F 19.4 °F 80% 30.05 in 10.0 mi NW 17.3 mph 23.0 mph N/A   Clear
12:53 PM 24.8 °F 11.1 °F 19.4 °F 80% 30.05 in 10.0 mi NW 18.4 mph - N/A   Clear
1:14 PM 24.8 °F 11.1 °F 19.4 °F 80% 30.05 in 10.0 mi NW 18.4 mph - N/A   Clear
1:34 PM 24.8 °F 10.0 °F 19.4 °F 80% 30.05 in 10.0 mi NNW 21.9 mph - N/A   Clear
1:53 PM 24.8 °F 10.3 °F 19.4 °F 80% 30.05 in 7.0 mi NW 20.7 mph 24.2 mph N/A   Clear
2:14 PM 24.8 °F 10.3 °F 19.4 °F 80% 30.04 in 10.0 mi NW 20.7 mph 27.6 mph N/A   Clear
2:34 PM 24.8 °F 10.0 °F 19.4 °F 80% 30.04 in 10.0 mi NNW 21.9 mph - N/A   Clear
2:53 PM 24.8 °F 9.3 °F 19.4 °F 80% 30.05 in 10.0 mi NNW 24.2 mph 27.6 mph N/A   Clear
3:14 PM 24.8 °F 10.0 °F 19.4 °F 80% 30.05 in 10.0 mi NNW 21.9 mph 28.8 mph N/A   Clear
3:34 PM 24.8 °F 10.3 °F 19.4 °F 80% 30.05 in 10.0 mi NW 20.7 mph - N/A   Clear
3:53 PM 24.8 °F 10.0 °F 19.4 °F 80% 30.06 in 7.0 mi NNW 21.9 mph - N/A   Clear
4:14 PM 24.8 °F 9.3 °F 19.4 °F 80% 30.06 in 7.0 mi NNW 24.2 mph - N/A   Clear
4:34 PM 24.8 °F 11.1 °F 21.2 °F 86% 30.06 in 10.0 mi NNW 18.4 mph 26.5 mph N/A   Clear
4:53 PM 24.8 °F 11.1 °F 21.2 °F 86% 30.06 in 10.0 mi NNW 18.4 mph - N/A   Clear
5:14 PM 24.8 °F 11.1 °F 21.2 °F 86% 30.06 in 10.0 mi NNW 18.4 mph - N/A   Clear
5:34 PM 24.8 °F 10.0 °F 21.2 °F 86% 30.06 in 7.0 mi NNW 21.9 mph 28.8 mph N/A   Clear
5:53 PM 24.8 °F 10.3 °F 21.2 °F 86% 30.07 in 7.0 mi NNW 20.7 mph 28.8 mph N/A   Clear
6:14 PM 24.8 °F 10.0 °F 21.2 °F 86% 30.07 in 7.0 mi NNW 21.9 mph 31.1 mph N/A   Mostly Cloudy
6:34 PM 24.8 °F 9.6 °F 21.2 °F 86% 30.08 in 10.0 mi NNW 23.0 mph 27.6 mph N/A   Overcast
6:53 PM 26.6 °F 12.0 °F 21.2 °F 80% 30.08 in 10.0 mi NNW 23.0 mph 31.1 mph N/A   Overcast
7:14 PM 26.6 °F 10.8 °F 23.0 °F 86% 30.08 in 5.0 mi NNW 27.6 mph 33.4 mph N/A   Overcast
7:34 PM 26.6 °F 12.0 °F 23.0 °F 86% 30.09 in 7.0 mi NNW 23.0 mph 29.9 mph N/A   Overcast
7:53 PM 26.6 °F 11.1 °F 23.0 °F 86% 30.10 in 5.0 mi NNW 26.5 mph 29.9 mph N/A   Overcast
8:14 PM 24.8 °F 8.1 °F 21.2 °F 86% 30.10 in 4.0 mi NNW 28.8 mph 34.5 mph N/A   Overcast
8:33 PM 24.8 °F 9.0 °F 21.2 °F 86% 30.10 in 4.0 mi NNW 25.3 mph 32.2 mph N/A   Overcast
8:53 PM 24.8 °F 9.3 °F 21.2 °F 86% 30.11 in 7.0 mi NNW 24.2 mph 27.6 mph N/A   Mostly Cloudy
9:14 PM 24.8 °F 9.6 °F 21.2 °F 86% 30.11 in 7.0 mi NNW 23.0 mph 28.8 mph N/A   Mostly Cloudy
9:33 PM 24.8 °F 10.3 °F 21.2 °F 86% 30.11 in 7.0 mi NNW 20.7 mph - N/A   Mostly Cloudy
9:53 PM 24.8 °F 9.3 °F 21.2 °F 86% 30.11 in 7.0 mi NNW 24.2 mph - N/A   Mostly Cloudy
10:14 PM 24.8 °F 9.6 °F 21.2 °F 86% 30.11 in 7.0 mi NNW 23.0 mph 28.8 mph N/A   Overcast
10:33 PM 24.8 °F 10.3 °F 21.2 °F 86% 30.12 in 10.0 mi NNW 20.7 mph - N/A   Mostly Cloudy
10:53 PM 23.0 °F 9.2 °F 19.4 °F 86% 30.12 in 10.0 mi NNW 17.3 mph - N/A   Scattered Clouds
11:14 PM 23.0 °F 8.7 °F 19.4 °F 86% 30.12 in 10.0 mi NNW 18.4 mph - N/A   Clear
11:33 PM 21.2 °F 7.3 °F 19.4 °F 93% 30.13 in 10.0 mi NNW 16.1 mph - N/A   Clear